Location: Eymir
(36.7333°N, 29.7833°E)
Time: 14:46:21
(UTC+00:00)

Cosmos 1805 Rocket - Visible Passes

Search period start: 11 April 2026 00:00
Search period end: 21 April 2026 00:00
Orbit: 600 x 621 km, 82.5° (Epoch: 11 April)

Date Brightness Start Highest point End Pass type
(mag) Time Alt. Az. Time Alt. Az. Time Alt. Az.
11 Apr 6.3 17:13:51 10° SW 17:17:24 24° WNW 17:20:59 10° NNW visible
12 Apr 7.1 17:30:02 10° WSW 17:32:17 14° WNW 17:34:32 10° NW visible
14 Apr 6.8 02:15:55 10° NE 02:18:41 16° ENE 02:21:26 10° ESE visible
15 Apr 5.9 02:29:43 10° NNE 02:33:32 28° ENE 02:37:18 10° SE visible
16 Apr 4.6 02:44:00 10° N 02:48:18 51° E 02:52:32 10° SSE visible
18 Apr 6.8 01:37:34 10° NE 01:39:39 13° ENE 01:41:42 10° E visible
19 Apr 6.1 01:51:02 10° NNE 01:54:32 23° ENE 01:57:59 10° SE visible
20 Apr 5.0 02:05:10 10° N 02:09:19 40° E 02:13:25 10° SSE visible
